This demonstration page uses our WeatherBlox Daily Observations layout. Learn more.

Left ArrowRight Arrow

31.84235, -102.49876

Hourly Observations for July 13, 2022

Temp ( °F °C ) Dew Point ( °F °C ) Humidity (%) Winds ( mph kmh ) Pressure ( in mb ) Visibility ( mi km ) Precip ( " mm )
12:53 am 00:53 Clear 85 29.4 60 15.6 43 43 SE 12 19 29.91 1013 10 16 0.00 0.00
1:53 am 01:53 Clear 83 28.3 60 15.6 46 46 SE 7 11 29.92 1013 10 16 0.00 0.00
2:53 am 02:53 Clear 81 27.2 61 16.1 51 51 SE 3 6 29.91 1013 10 16 0.00 0.00
3:53 am 03:53 Clear 79 26.1 60 15.6 52 52 E 3 6 29.92 1013 10 16 0.00 0.00
4:53 am 04:53 Clear 78 25.6 61 16.1 56 56 Calm 29.91 1013 10 16 0.00 0.00
5:53 am 05:53 Clear 77 25 61 16.1 58 58 NE 3 6 29.92 1013 10 16 0.00 0.00
6:53 am 06:53 Clear 76 24.4 60 15.6 58 58 E 8 13 29.94 1014 10 16 0.00 0.00
7:53 am 07:53 Sunny 78 25.6 62 16.7 58 58 ESE 6 9 29.96 1014 10 16 0.00 0.00
8:53 am 08:53 Sunny 82 27.8 62 16.7 51 51 ESE 7 11 29.98 1015 10 16 0.00 0.00
9:53 am 09:53 Sunny 86 30 62 16.7 45 45 SE 7 11 29.98 1015 10 16 0.00 0.00
10:53 am 10:53 Sunny 88 31.1 61 16.1 40 40 undefined N/A 29.97 1015 10 16 0.00 0.00
11:53 am 11:53 Sunny 92 33.3 61 16.1 36 36 VRB 5 7 29.97 1015 10 16 0.00 0.00
12:53 pm 12:53 Sunny 93 33.9 60 15.6 33 33 VRB 5 7 29.96 1015 10 16 0.00 0.00
1:53 pm 13:53 Sunny 98 36.7 60 15.6 28 28 ESE 8 13 29.94 1014 10 16 0.00 0.00
2:53 pm 14:53 Sunny 97 36.1 57 13.9 26 26 SSE 8 13 29.92 1013 10 16 0.00 0.00
3:53 pm 15:53 Mostly Sunny 100 37.8 57 13.9 24 24 E 14 22 29.89 1012 10 16 0.00 0.00
4:53 pm 16:53 Sunny 98 36.7 54 12.2 23 23 E 6 9 29.88 1012 10 16 0.00 0.00
5:53 pm 17:53 Mostly Cloudy with Haze 95 35 57 13.9 28 28 ESE 20 31 29.87 1012 5 8 0.00 0.00
6:01 pm 18:01 Mostly Cloudy with Nearby Thunderstorms 94 34.4 59 15 31 31 ESE 15 24 29.78 1008 5 8 0.00 0.00
6:25 pm 18:25 Mostly Cloudy with Light Rain 86 30 63 17.2 46 46 SSE 23 37 29.82 1010 5 8 0.04 1.02
6:33 pm 18:33 Partly Cloudy with Thunderstorms 86 30 62 16.7 45 45 S 21 33 29.83 1010 10 16 0.04 1.02
6:53 pm 18:53 Partly Cloudy with Nearby Thunderstorms 81 27.2 63 17.2 54 54 SW 22 35 29.94 1014 7 11 0.04 1.02
7:00 pm 19:00 Mostly Cloudy with Nearby Thunderstorms 81 27.2 63 17.2 54 54 undefined N/A 29.89 1012 6 10 0.00 0.00
7:42 pm 19:42 Partly Cloudy 77 25 64 17.8 64 64 WSW 15 24 29.93 1013 10 16 0.00 0.00
7:53 pm 19:53 Mostly Sunny 77 25 65 18.3 66 66 W 15 24 29.97 1015 10 16 0.00 0.00
8:53 pm 20:53 Mostly Sunny 79 26.1 64 17.8 60 60 W 8 13 29.93 1014 10 16 0.00 0.00
9:53 pm 21:53 Clear 79 26.1 64 17.8 60 60 SSE 7 11 29.97 1015 10 16 0.00 0.00
10:53 pm 22:53 Clear 81 27.2 62 16.7 53 53 NE 9 15 29.95 1014 10 16 0.00 0.00
11:53 pm 23:53 Clear 79 26.1 62 16.7 56 56 SE 3 6 29.91 1013 10 16 0.00 0.00

Powered by AerisWeather